(203102) = 2000 RD102

Discovered at Anderson Mesa on 2000-09-05 by LONEOS.

Orbit

Orbit type: Main Belt

Note: WebGL enabled browser required.

epoch2024-03-31.0
epoch JD2460400.5
perihelion date2023-03-02.27113
perihelion JD2460005.77113
argument of perihelion (°)74.28649
ascending node (°)303.00222
inclination (°)9.56032
eccentricity0.2558766
perihelion distance (AU)1.7899250
Tisserand w.r.t. Jupiter3.5
ΔV w.r.t. Earth (km/sec)8.8
semimajor axis (AU)2.4054143
mean anomaly (°)104.28405
mean daily motion (°/day)0.26419160
aphelion distance (AU)3.021
period (years)3.73
P-vector [x]0.94360692
P-vector [y]0.20238611
P-vector [z]0.26200351
Q-vector [x]-0.30034125
Q-vector [y]0.85625770
Q-vector [z]0.42025931
absolute magnitude16.23
phase slope0.15
uncertainty0
referenceMPEC 2024-E73
observations used722
oppositions14
arc length (days)11017
first opposition used1994
last opposition used2024
residual rms (arc-secs)0.67
perturbers coarse indicatorM-v
perturbers precise indicator003Ek
first observation date used1994-01-05.0
last observation date used2024-03-05.0
computer nameMPCLINUX
JD of orbit computation2456819.366452
perihelion JD uncertainty (days)8.7137E-05
argument of perihelion uncertainty (°)3.6914E-05
ascending node uncertainty (°)2.9653E-05
inclination uncertainty (°)6.8547E-06
eccentricity uncertainty 6.7041E-08
perihelion distance uncertainty (AU)1.6927E-07
Minimum Orbit Intersection Distances (in AU)
for orbit epoch: 2460400.5, reference: E2024-E73
Mercury1.45629
Venus1.09134
Earth0.81888
Mars0.45784
Jupiter2.54147
Saturn6.54674
Uranus15.5255
Neptune27.6473

Observations

736 total observations over interval: 1994 01 05.22103 – 2024 03 05.155918
These data are available for download (format description).

Date (UT) J2000 RA J2000 Dec Magn Location Ref
1994 01 05.22103 08 23 59.95 +21 42 24.2 18.9 V 691 – Steward Observatory, Kitt Peak-Spacewatch MPS 120359
1994 01 05.26674 08 23 57.13 +21 42 19.2   691 – Steward Observatory, Kitt Peak-Spacewatch MPS 120359
1994 01 05.31306 08 23 53.57 +21 42 22.1   691 – Steward Observatory, Kitt Peak-Spacewatch MPS 120359
2000 09 05.38322 01 00 46.70 +23 53 28.7 17.2 R 699 – Lowell Observatory-LONEOS MPS 19701
2000 09 05.40222 01 00 46.36 +23 53 40.1   699 – Lowell Observatory-LONEOS MPS 19701
2000 09 05.42130 01 00 46.06 +23 53 51.9   699 – Lowell Observatory-LONEOS MPS 19701
2000 09 05.44046 01 00 45.74 +23 54 04.7   699 – Lowell Observatory-LONEOS MPS 19701
2000 09 06.36443 01 00 33.63 +24 03 34.3 18.0   704 – Lincoln Laboratory ETS, New Mexico MPS 19701
2000 09 06.37874 01 00 33.45 +24 03 42.7 17.9   704 – Lincoln Laboratory ETS, New Mexico MPS 19701
2000 09 06.39240 01 00 33.22 +24 03 51.0 17.0   704 – Lincoln Laboratory ETS, New Mexico MPS 19701
2000 09 06.40604 01 00 32.97 +24 03 59.5 17.2   704 – Lincoln Laboratory ETS, New Mexico MPS 19701
2000 09 28.26946 00 47 45.35 +26 25 19.2 17.6   704 – Lincoln Laboratory ETS, New Mexico MPS 19701
2000 09 28.28466 00 47 44.50 +26 25 21.6 18.1   704 – Lincoln Laboratory ETS, New Mexico MPS 19701
2000 09 28.29954 00 47 43.69 +26 25 23.9 17.7   704 – Lincoln Laboratory ETS, New Mexico MPS 19701
2000 09 28.31513 00 47 42.84 +26 25 25.5 18.0   704 – Lincoln Laboratory ETS, New Mexico MPS 19701
2000 09 28.32978 00 47 42.02 +26 25 26.9 18.6   704 – Lincoln Laboratory ETS, New Mexico MPS 19701
2000 10 03.15196 00 43 27.44 +26 31 04.9 16.9 R 699 – Lowell Observatory-LONEOS MPS 19701
2000 10 03.20025 00 43 24.71 +26 31 06.4   699 – Lowell Observatory-LONEOS MPS 19701
2000 10 03.22045 00 43 23.55 +26 31 06.7   699 – Lowell Observatory-LONEOS MPS 19701
2000 10 03.24063 00 43 22.35 +26 31 07.5   699 – Lowell Observatory-LONEOS MPS 19701
2000 10 04.33664 00 42 22.59 +26 31 02.0 17.2   704 – Lincoln Laboratory ETS, New Mexico MPS 19701
2000 10 04.35231 00 42 21.70 +26 31 01.1 17.9   704 – Lincoln Laboratory ETS, New Mexico MPS 19701
2000 10 04.36777 00 42 20.79 +26 31 01.1 17.6   704 – Lincoln Laboratory ETS, New Mexico MPS 19701
2000 10 04.38304 00 42 19.90 +26 31 00.0 18.4   704 – Lincoln Laboratory ETS, New Mexico MPS 19701
2000 10 04.39812 00 42 19.04 +26 30 59.7 17.5   704 – Lincoln Laboratory ETS, New Mexico MPS 19701
2000 10 09.12736 00 38 03.88 +26 25 12.1 17.3 V 860 – Valinhos MPS 21136
2000 10 09.13763 00 38 03.25 +26 25 14.0 16.8 V 860 – Valinhos MPS 21136
2000 10 09.15814 00 38 01.99 +26 25 07.9 16.3 V 860 – Valinhos MPS 21136
2000 10 26.08642 00 25 33.73 +25 04 31.6 16.8 R 699 – Lowell Observatory-LONEOS MPS 25165
2000 10 26.11484 00 25 32.83 +25 04 21.0   699 – Lowell Observatory-LONEOS MPS 25165
2000 10 26.12889 00 25 32.33 +25 04 15.3   699 – Lowell Observatory-LONEOS MPS 25165
2000 10 26.14298 00 25 31.87 +25 04 09.5   699 – Lowell Observatory-LONEOS MPS 25165
2000 11 23.29729 00 26 48.83 +21 54 04.4 18.6   608 – Haleakala-AMOS MPS 22458
2000 11 23.30793 00 26 49.16 +21 54 00.9 18.8   608 – Haleakala-AMOS MPS 22458
2000 11 23.31848 00 26 49.51 +21 53 57.4 18.7   608 – Haleakala-AMOS MPS 22458
2000 11 28.14400 00 30 08.40 +21 30 03.6 19.2   704 – Lincoln Laboratory ETS, New Mexico MPS 22458
2000 11 28.15908 00 30 09.05 +21 29 58.8 19.0   704 – Lincoln Laboratory ETS, New Mexico MPS 22458
2000 11 28.19012 00 30 10.41 +21 29 50.2 18.6   704 – Lincoln Laboratory ETS, New Mexico MPS 22458
2000 11 28.20612 00 30 11.10 +21 29 45.9 19.6   704 – Lincoln Laboratory ETS, New Mexico MPS 22458
2000 12 04.14723 00 35 22.34 +21 06 28.1 18.7   704 – Lincoln Laboratory ETS, New Mexico MPS 22458
2000 12 04.16162 00 35 23.10 +21 06 25.8 18.5   704 – Lincoln Laboratory ETS, New Mexico MPS 22458
2000 12 04.17694 00 35 23.98 +21 06 21.8 18.4   704 – Lincoln Laboratory ETS, New Mexico MPS 22458
2000 12 04.19139 00 35 24.81 +21 06 19.8 18.6   704 – Lincoln Laboratory ETS, New Mexico MPS 22458
2000 12 19.15414 00 53 00.67 +20 37 41.0 19.8   704 – Lincoln Laboratory ETS, New Mexico MPS 23815
2000 12 19.16931 00 53 02.02 +20 37 39.5 19.4   704 – Lincoln Laboratory ETS, New Mexico MPS 23815
2000 12 19.18448 00 53 03.22 +20 37 39.0 19.4   704 – Lincoln Laboratory ETS, New Mexico MPS 23815
2000 12 19.19977 00 53 04.47 +20 37 37.8 19.2   704 – Lincoln Laboratory ETS, New Mexico MPS 23815
2004 10 15.37750 06 22 06.76 +34 55 29.9 20.2   704 – Lincoln Laboratory ETS, New Mexico MPS 120359
2004 10 15.38858 06 22 07.48 +34 55 29.8 20.2   704 – Lincoln Laboratory ETS, New Mexico MPS 120359
2004 10 15.39967 06 22 08.14 +34 55 31.6 20.2   704 – Lincoln Laboratory ETS, New Mexico MPS 120359
2004 10 15.41075 06 22 08.79 +34 55 33.4 19.9   704 – Lincoln Laboratory ETS, New Mexico MPS 120359
2004 11 22.34107 06 29 01.87 +35 16 19.1 18.6   704 – Lincoln Laboratory ETS, New Mexico MPS 120359
2004 11 22.35336 06 29 01.32 +35 16 18.2 18.6   704 – Lincoln Laboratory ETS, New Mexico MPS 120359
2004 11 22.36564 06 29 00.65 +35 16 18.2 19.2   704 – Lincoln Laboratory ETS, New Mexico MPS 120359
2004 11 22.37794 06 29 00.09 +35 16 17.9 18.8   704 – Lincoln Laboratory ETS, New Mexico MPS 120359
2004 12 15.28284 06 04 01.10 +34 11 11.7 18.5   704 – Lincoln Laboratory ETS, New Mexico MPS 121602
2004 12 15.29794 06 03 59.97 +34 11 07.7 18.8   704 – Lincoln Laboratory ETS, New Mexico MPS 121602
2004 12 15.32804 06 03 57.41 +34 10 58.6 19.2   704 – Lincoln Laboratory ETS, New Mexico MPS 121602
2004 12 17.24455 06 01 26.24 +34 00 49.3 18.5   704 – Lincoln Laboratory ETS, New Mexico MPS 122619
2004 12 17.25914 06 01 24.98 +34 00 43.3 19.7   704 – Lincoln Laboratory ETS, New Mexico MPS 122619
2004 12 17.28640 06 01 22.80 +34 00 35.8 18.5   704 – Lincoln Laboratory ETS, New Mexico MPS 122619
2004 12 17.29995 06 01 21.65 +34 00 30.8 18.8   704 – Lincoln Laboratory ETS, New Mexico MPS 122619
2004 12 20.20452 05 57 33.60 +33 43 47.7 18.1 R 703 – Catalina Sky Survey MPS 122619
2004 12 20.21093 05 57 33.02 +33 43 44.7 18.1 R 703 – Catalina Sky Survey MPS 122619
2004 12 20.21732 05 57 32.53 +33 43 43.4 18.1 R 703 – Catalina Sky Survey MPS 122619
2004 12 20.22367 05 57 31.98 +33 43 41.0 17.8 R 703 – Catalina Sky Survey MPS 122619
2005 01 07.22640 05 37 16.90 +31 34 25.4 19.5   704 – Lincoln Laboratory ETS, New Mexico MPS 123992
2005 01 07.23942 05 37 16.22 +31 34 18.5 20.2   704 – Lincoln Laboratory ETS, New Mexico MPS 123992
2005 01 07.25241 05 37 15.46 +31 34 11.8 19.8   704 – Lincoln Laboratory ETS, New Mexico MPS 123992
2005 01 07.26540 05 37 14.78 +31 34 06.5 20.0   704 – Lincoln Laboratory ETS, New Mexico MPS 123992
2005 01 12.28651 05 33 22.66 +30 54 29.0 19.4   704 – Lincoln Laboratory ETS, New Mexico MPS 123992
2005 01 12.30134 05 33 22.05 +30 54 21.5 19.6   704 – Lincoln Laboratory ETS, New Mexico MPS 123992
2005 01 12.31588 05 33 21.48 +30 54 14.8 19.5   704 – Lincoln Laboratory ETS, New Mexico MPS 123992
2005 01 12.33056 05 33 20.77 +30 54 06.8 19.7   704 – Lincoln Laboratory ETS, New Mexico MPS 123992
2005 01 12.34522 05 33 20.22 +30 54 00.5 19.6   704 – Lincoln Laboratory ETS, New Mexico MPS 123992
2005 01 16.21074 05 31 02.86 +30 23 48.1 19.2   704 – Lincoln Laboratory ETS, New Mexico MPS 124579
2005 01 16.24115 05 31 01.87 +30 23 33.7 19.7   704 – Lincoln Laboratory ETS, New Mexico MPS 124579
2005 01 16.25484 05 31 01.38 +30 23 27.0 19.5   704 – Lincoln Laboratory ETS, New Mexico MPS 124579
2005 01 16.26945 05 31 00.91 +30 23 20.8 19.9   704 – Lincoln Laboratory ETS, New Mexico MPS 124579
2008 11 07.50944 09 03 00.39 +20 15 53.5 20.7 V G96 – Mt. Lemmon Survey MPS 262998
2008 11 07.51515 09 03 00.68 +20 15 51.9 20.9 V G96 – Mt. Lemmon Survey MPS 262998
2008 11 07.52086 09 03 01.00 +20 15 50.0 20.6 V G96 – Mt. Lemmon Survey MPS 262998
2008 11 07.52654 09 03 01.29 +20 15 47.8 20.7 V G96 – Mt. Lemmon Survey MPS 262998
2008 12 21.52048 09 13 10.43 +17 28 04.2 19.8 V 691 – Steward Observatory, Kitt Peak-Spacewatch MPS 269178
2008 12 21.53859 09 13 09.81 +17 28 03.0 19.9 V 691 – Steward Observatory, Kitt Peak-Spacewatch MPS 269178
2008 12 21.55673 09 13 09.25 +17 28 01.1 19.8 V 691 – Steward Observatory, Kitt Peak-Spacewatch MPS 269178
